Date,TemperatureHighF,TemperatureAvgF,TemperatureLowF,DewpointHighF,DewpointAvgF,DewpointLowF,HumidityHigh,HumidityAvg,HumidityLow,PressureMaxIn,PressureMinIn,WindSpeedMaxMPH,WindSpeedAvgMPH,GustSpeedMaxMPH,PrecipitationSumIn
2013-1-1,48.0,35.3,25.0,19.0,15.9,12.0,70,48,25,30.33,30.20,2,0,7,0.00
2013-1-2,52.0,38.2,26.0,20.0,16.1,14.0,64,42,24,30.27,30.11,2,0,7,0.00
2013-1-3,53.0,38.3,27.0,18.0,12.0,4.0,62,37,14,30.32,30.18,3,0,7,0.00
2013-1-4,51.0,37.3,24.0,14.0,11.3,7.0,58,37,18,30.33,30.21,2,0,5,0.00
2013-1-7,61.0,53.6,45.0,15.0,12.8,10.0,30,20,14,30.01,29.96,5,1,10,0.00
2013-1-8,65.0,55.7,46.0,31.0,30.1,29.0,54,39,27,30.21,30.09,2,0,9,0.00
2013-1-9,60.0,47.6,35.0,34.0,30.2,28.0,76,53,32,30.22,29.84,4,0,9,0.00
2013-1-10,55.0,46.3,37.0,33.0,22.6,5.0,63,41,19,29.85,29.65,11,3,22,0.00
2013-1-11,45.0,37.8,28.0,19.0,10.5,6.0,47,32,24,30.02,29.85,5,2,14,0.00
2013-1-12,42.0,34.3,28.0,10.0,6.3,0.0,43,31,17,30.09,29.98,5,1,14,0.00
2013-1-13,38.0,29.7,19.0,9.0,5.2,0.0,58,36,22,30.17,30.05,4,1,11,0.00
2013-1-14,38.0,30.0,25.0,3.0,0.2,-3.0,38,28,18,30.39,30.17,6,3,15,0.00
2013-1-15,46.0,32.8,21.0,14.0,8.4,2.0,50,37,25,30.50,30.38,4,0,8,0.00
2013-1-16,56.0,39.4,25.0,23.0,19.0,13.0,65,45,26,30.48,30.30,3,0,7,0.00
2013-1-17,60.0,41.8,29.0,20.0,17.0,14.0,64,41,16,30.41,30.26,2,0,7,0.00
2013-1-18,60.0,43.4,28.0,19.0,16.4,14.0,61,36,17,30.35,30.20,3,0,5,0.00
2013-1-19,63.0,45.9,33.0,19.0,15.1,13.0,47,31,15,30.35,30.20,2,0,5,0.00
2013-1-20,64.0,46.5,31.0,19.0,14.5,12.0,47,30,14,30.27,30.13,2,0,5,0.00
2013-1-21,65.0,48.2,32.0,17.0,12.4,7.0,45,26,11,30.28,30.13,3,0,6,0.00
2013-1-22,65.0,47.5,31.0,19.0,16.0,12.0,50,30,15,30.24,30.13,3,0,7,0.00
2013-1-23,63.0,47.5,36.0,26.0,20.4,16.0,49,36,19,30.23,30.11,2,0,6,0.00
2013-1-24,56.0,51.5,48.0,46.0,36.7,26.0,79,58,41,30.21,30.09,2,0,4,0.01
2013-1-25,63.0,57.9,53.0,51.0,46.4,42.0,92,67,48,30.07,29.99,1,0,4,0.04
2013-1-26,57.0,52.5,48.0,52.0,50.0,47.0,97,91,80,29.99,29.80,2,0,6,0.39
2013-1-27,63.0,53.7,46.0,48.0,38.1,28.0,97,58,38,29.85,29.76,9,4,23,0.01
2013-1-28,50.0,45.5,40.0,29.0,18.7,13.0,51,35,23,30.02,29.83,7,2,18,0.00
2013-1-29,57.0,47.1,39.0,31.0,25.5,19.0,62,43,32,30.22,29.97,5,1,14,0.00
2013-1-30,61.0,47.6,35.0,33.0,30.0,27.0,75,52,31,30.32,30.18,3,0,6,0.00
2013-1-31,65.0,52.8,36.0,36.0,33.7,30.0,80,51,31,30.28,30.14,3,0,6,0.00
2013-2-1,65.0,49.6,36.0,36.0,33.5,31.0,83,57,30,30.25,30.14,2,0,6,0.00
2013-2-2,66.0,53.3,41.0,36.0,32.7,28.0,74,49,25,30.32,30.15,3,0,6,0.00
2013-2-3,68.0,56.8,46.0,39.0,35.0,29.0,66,45,29,30.15,29.98,3,1,8,0.00
2013-2-4,68.0,53.8,42.0,35.0,29.7,25.0,68,43,20,30.11,29.97,2,0,8,0.00
2013-2-5,67.0,52.7,37.0,32.0,28.9,26.0,69,43,23,30.02,29.81,3,0,9,0.00
2013-2-6,69.0,56.5,45.0,33.0,27.7,21.0,55,36,16,29.93,29.80,5,1,13,0.00
2013-2-7,65.0,57.0,48.0,27.0,24.4,22.0,40,29,23,29.83,29.73,6,1,15,0.00
2013-2-8,55.0,48.6,38.0,31.0,26.3,20.0,62,42,28,29.73,29.65,10,3,21,0.00
2013-2-9,54.0,45.4,36.0,30.0,23.8,20.0,70,44,29,29.92,29.69,6,1,14,0.00
2013-2-10,53.0,45.1,40.0,28.0,19.6,16.0,52,36,24,30.00,29.85,7,2,15,0.00
2013-2-11,52.0,43.7,35.0,27.0,14.1,7.0,54,31,18,30.20,30.00,5,2,13,0.00
2013-2-12,55.0,41.6,29.0,21.0,14.9,9.0,51,35,21,30.32,30.20,3,0,7,0.00
2013-2-13,62.0,47.6,32.0,27.0,23.2,18.0,61,40,24,30.27,30.11,4,0,9,0.00
2013-2-14,67.0,53.6,38.0,29.0,26.0,22.0,61,37,20,30.23,30.13,5,1,11,0.00
2013-2-15,66.0,55.8,44.0,25.0,22.7,20.0,44,29,17,30.32,30.27,1,0,7,0.00
2013-2-16,66.0,50.7,35.0,28.0,23.3,20.0,61,37,17,30.33,29.96,2,0,7,0.00
2013-2-17,72.0,54.5,35.0,25.0,17.5,6.0,60,29,9,29.96,29.75,7,1,12,0.00
2013-2-18,62.0,55.5,46.0,22.0,20.3,18.0,38,26,19,29.94,29.84,4,1,8,0.00
2013-2-19,61.0,53.6,49.0,29.0,26.9,23.0,44,36,24,29.54,29.49,11,5,22,0.00
2013-2-20,56.0,47.4,38.0,38.0,31.2,26.0,82,55,33,29.81,29.46,5,2,12,0.00
2013-2-21,55.0,43.2,33.0,33.0,22.0,10.0,88,49,17,29.98,29.81,3,0,9,0.00
2013-2-23,63.0,51.6,37.0,27.0,16.1,1.0,57,26,11,30.04,29.80,8,4,18,0.00
2013-2-24,57.0,51.3,44.0,12.0,7.5,3.0,26,17,12,30.15,30.04,9,4,21,0.00
2013-2-25,57.0,50.1,42.0,17.0,14.4,12.0,36,24,17,30.02,29.96,2,0,5,0.00
2013-2-26,59.0,50.7,31.0,20.0,12.5,7.0,54,23,13,30.18,30.05,4,2,11,0.00
2013-2-27,59.0,48.7,31.0,17.0,11.2,4.0,52,24,11,30.36,30.24,4,1,11,0.00
2013-2-28,65.0,49.1,31.0,19.0,13.4,10.0,49,26,12,30.40,30.28,3,0,7,0.00
2013-3-1,74.0,61.2,45.0,30.0,26.5,20.0,44,28,17,30.42,30.24,2,0,5,0.00
2013-3-2,74.0,64.1,43.0,34.0,31.2,29.0,59,31,19,30.30,29.99,3,1,9,0.00
2013-3-3,77.0,71.8,56.0,35.0,31.8,28.0,42,23,18,29.99,29.73,15,6,26,0.00
2013-3-4,71.0,63.9,52.0,33.0,29.2,23.0,45,28,20,30.06,29.94,2,0,8,0.00
2013-3-5,73.0,60.4,45.0,32.0,29.8,27.0,54,33,20,30.09,29.85,8,2,16,0.00
2013-3-6,70.0,61.3,51.0,37.0,31.2,27.0,53,33,21,29.91,29.77,12,5,22,0.00
2013-3-7,62.0,55.8,49.0,32.0,30.1,26.0,49,38,25,29.87,29.79,14,3,22,0.00
2013-3-8,52.0,46.6,44.0,46.0,41.7,39.0,91,83,67,29.79,29.62,9,1,22,0.27
2013-3-9,62.0,52.3,44.0,42.0,37.0,28.0,90,60,33,30.13,29.79,7,2,15,0.05
2013-3-10,68.0,58.4,47.0,31.0,24.3,20.0,50,28,17,30.28,30.13,7,2,13,0.00
2013-3-11,72.0,56.6,40.0,34.0,28.7,24.0,63,38,17,30.22,30.03,3,0,7,0.00
2013-3-12,77.0,60.6,44.0,36.0,32.2,30.0,63,38,19,30.16,30.04,3,0,8,0.00
2013-3-15,86.0,76.9,66.0,39.0,35.8,34.0,35,24,16,29.86,29.80,3,1,8,0.00
2013-3-16,86.0,72.5,56.0,39.0,26.0,16.0,47,21,8,29.85,29.68,4,1,13,0.00
2013-3-17,81.0,71.3,59.0,29.0,14.5,2.0,29,12,5,29.88,29.68,5,2,14,0.00
2013-4-7,81.0,77.5,76.0,32.0,28.2,24.0,20,16,12,29.63,29.60,9,5,21,0.00
2013-4-8,68.0,58.5,47.0,42.0,35.2,27.0,77,44,22,29.58,29.35,12,3,28,0.02
2013-4-9,70.0,61.1,51.0,24.0,21.5,18.0,29,22,14,30.07,29.75,8,4,20,0.02
2013-4-10,75.0,60.8,44.0,28.0,22.6,18.0,48,25,12,30.14,29.93,4,1,12,0.00
2013-4-11,76.0,60.5,49.0,31.0,26.1,23.0,47,29,14,29.95,29.82,4,1,7,0.00
2013-4-17,66.0,59.8,52.0,22.0,16.3,10.0,31,19,12,30.20,30.02,6,2,14,0.00
2013-4-18,68.0,56.0,43.0,24.0,14.1,7.0,37,20,9,30.30,30.18,4,1,12,0.00
2013-4-27,92.0,86.1,72.0,33.0,20.4,15.0,22,10,6,30.09,29.94,3,1,8,0.00
2013-4-28,97.0,90.4,72.0,30.0,20.3,14.0,20,8,5,29.93,29.75,5,1,11,0.00
2013-4-29,100.0,84.9,63.0,38.0,25.8,16.0,31,14,6,29.83,29.60,8,2,18,0.00
2013-4-30,95.0,84.9,67.0,40.0,32.1,21.0,30,15,9,29.70,29.57,8,2,18,0.00
2013-5-1,83.0,72.3,64.0,22.0,1.3,-17.0,11,6,2,30.30,29.70,9,4,22,0.00
2013-5-2,80.0,67.8,54.0,22.0,8.3,1.0,21,10,5,30.44,30.15,7,3,20,0.00
2013-5-3,87.0,71.4,51.0,28.0,14.8,2.0,37,14,4,30.16,29.77,4,1,10,0.00
2013-5-4,92.0,79.3,56.0,33.0,14.5,6.0,31,10,5,29.77,29.55,7,2,17,0.00
2013-5-6,78.0,70.9,61.0,44.0,38.5,34.0,41,31,22,29.88,29.78,8,3,19,0.00
2013-5-7,73.0,63.9,57.0,44.0,39.5,36.0,55,41,27,29.94,29.85,6,2,20,0.00
2013-5-8,77.0,65.7,56.0,44.0,41.4,38.0,59,42,25,30.04,29.94,5,1,16,0.00
2013-5-9,78.0,68.6,54.0,47.0,42.5,39.0,61,40,25,30.03,29.95,4,1,15,0.00
2013-5-10,89.0,74.4,58.0,48.0,39.9,-99.9,62,34,15,30.10,29.99,4,1,10,0.00
2013-5-11,94.0,79.6,60.0,43.0,36.2,-99.9,51,24,10,30.17,30.04,3,1,12,0.00
2013-5-12,98.0,84.2,63.0,43.0,33.3,26.0,39,18,8,30.15,29.96,4,1,10,0.00
2013-5-13,103.0,88.0,64.0,44.0,31.4,22.0,42,16,6,30.04,29.85,5,1,17,0.00
2013-5-14,101.0,86.7,66.0,43.0,34.1,25.0,41,18,7,29.90,29.78,9,2,23,0.00
2013-5-16,89.0,84.4,79.0,33.0,28.3,20.0,19,13,8,29.71,29.65,14,8,22,0.00
2013-5-17,86.0,76.7,70.0,41.0,33.8,-99.9,31,24,16,29.85,29.69,14,5,25,0.00
2013-5-18,90.0,77.1,60.0,45.0,36.5,20.0,46,25,9,29.93,29.80,4,1,11,0.00
2013-5-19,87.0,78.1,67.0,37.0,27.6,21.0,29,16,11,29.98,29.83,8,3,18,0.00
2013-5-20,86.0,75.2,65.0,37.0,26.7,20.0,33,18,9,30.09,29.91,6,1,15,0.00
2013-5-21,94.0,81.0,59.0,40.0,28.5,12.0,42,18,5,29.94,29.63,9,3,18,0.00
2013-5-22,93.0,81.9,73.0,36.0,25.3,0.0,22,14,3,29.64,29.52,12,7,29,0.00
2013-5-23,88.0,76.2,64.0,31.0,15.6,-11.0,25,12,2,29.79,29.58,9,4,25,0.00
2013-5-24,92.0,76.9,58.0,31.0,18.4,9.0,24,12,6,29.90,29.75,9,2,17,0.00
2013-5-25,92.0,79.9,65.0,32.0,21.9,9.0,28,13,5,29.86,29.77,10,4,20,0.00
2013-5-26,90.0,84.0,72.0,33.0,29.1,25.0,23,14,10,29.87,29.77,9,5,18,0.00
2013-5-27,94.0,80.3,62.0,37.0,31.5,26.0,37,19,9,29.87,29.67,7,2,16,0.00
2013-5-28,92.0,84.8,78.0,32.0,22.5,16.0,12,10,9,29.70,29.58,8,4,18,0.00
2013-5-29,93.0,79.6,66.0,40.0,34.7,26.0,32,21,13,29.80,29.60,4,1,15,0.00
2013-6-5,104.0,98.1,85.0,38.0,30.5,26.0,17,10,7,29.82,29.73,3,1,9,0.00
2013-6-6,107.0,92.2,72.0,44.0,33.5,25.0,32,15,6,29.86,29.70,4,1,11,0.00
2013-6-7,110.0,96.7,73.0,48.0,31.9,17.0,36,13,4,29.83,29.67,3,1,9,0.00
2013-6-8,111.0,94.3,74.0,44.0,33.0,25.0,33,14,5,29.77,29.66,4,1,11,0.00
2013-6-9,110.0,99.2,81.0,47.0,32.1,19.0,29,11,5,29.85,29.71,7,3,16,0.00
2013-6-10,102.0,90.5,78.0,47.0,29.5,13.0,30,13,5,29.82,29.67,11,4,29,0.00
2013-6-11,103.0,88.3,68.0,38.0,33.6,29.0,32,16,8,29.93,29.76,6,1,12,0.00
2013-6-12,105.0,94.8,82.0,42.0,31.9,23.0,24,11,6,29.88,29.75,9,3,19,0.00
2013-6-13,103.0,90.7,80.0,41.0,25.6,-4.0,24,12,2,29.86,29.72,8,4,19,0.00
2013-6-14,103.0,88.0,66.0,36.0,12.2,-19.0,23,8,1,29.88,29.70,7,2,15,0.00
2013-6-15,103.0,84.8,64.0,38.0,18.1,-18.0,34,12,1,29.84,29.75,7,2,19,0.00
2013-6-16,100.0,85.9,65.0,37.0,20.4,7.0,29,11,4,29.94,29.81,6,2,18,0.00
2013-6-17,104.0,90.7,65.0,39.0,19.1,3.0,35,9,3,29.92,29.75,7,1,14,0.00
2013-6-18,103.0,91.0,77.0,33.0,23.0,7.0,20,9,3,29.80,29.63,10,4,25,0.00
2013-6-19,97.0,86.9,76.0,38.0,27.1,13.0,23,13,6,29.75,29.63,9,3,20,0.00
2013-6-20,98.0,82.5,66.0,27.0,16.9,9.0,22,9,5,29.79,29.68,7,1,14,0.00
2013-6-21,100.0,98.2,95.0,21.0,16.8,12.0,6,5,4,29.76,29.67,9,6,16,0.00
2013-6-22,100.0,93.1,71.0,31.0,25.2,19.0,20,9,6,29.85,29.68,6,2,11,0.00
2013-6-23,102.0,92.4,71.0,37.0,31.4,25.0,27,12,7,29.75,29.58,9,4,24,0.00
2013-6-24,91.0,83.1,75.0,46.0,40.2,34.0,28,22,15,29.77,29.62,11,5,22,0.00
2013-6-25,100.0,87.5,74.0,51.0,47.3,43.0,43,26,16,29.90,29.77,8,3,16,0.00
2013-6-27,109.0,99.4,78.0,51.0,47.8,44.0,39,19,12,30.05,29.90,3,1,11,0.00
2013-6-28,115.0,106.0,81.0,51.0,43.4,35.0,33,13,7,29.98,29.79,4,1,9,0.00
2013-6-29,116.0,106.8,85.0,52.0,40.5,34.0,28,11,7,29.88,29.70,4,0,10,0.00
2013-6-30,117.0,109.2,97.0,45.0,39.8,35.0,17,10,7,29.83,29.66,4,1,10,0.00
2013-7-1,113.0,104.2,90.0,57.0,48.3,42.0,30,16,10,29.86,29.73,4,2,12,0.00
2013-7-2,115.0,105.4,91.0,53.0,45.6,42.0,26,14,9,29.89,29.71,8,2,16,0.00
2013-7-3,112.0,104.2,88.0,56.0,47.1,41.0,30,15,10,29.83,29.64,4,1,11,0.00
2013-7-4,113.0,103.2,89.0,55.0,47.4,43.0,26,16,10,29.75,29.59,6,2,15,0.00
2013-7-5,109.0,98.9,84.0,60.0,51.5,41.0,42,22,12,29.75,29.61,10,2,20,0.00
2013-7-6,105.0,94.4,84.0,57.0,50.8,46.0,38,24,15,29.81,29.66,5,1,12,0.00
2013-7-7,105.0,97.7,84.0,63.0,49.5,38.0,42,20,12,29.83,29.68,9,1,16,0.01
2013-7-8,108.0,98.0,78.0,53.0,34.5,20.0,36,13,5,29.92,29.80,8,2,18,0.01
2013-7-9,110.0,102.0,82.0,42.0,29.9,23.0,24,9,6,30.00,29.85,9,3,17,0.00
2013-7-10,106.0,94.6,88.0,60.0,50.4,-99.9,35,25,14,29.94,29.77,4,1,10,0.00
2013-7-11,93.0,85.2,79.0,66.0,62.8,51.0,61,48,29,29.92,29.85,8,2,15,0.00
2013-7-12,95.0,84.4,77.0,65.0,62.2,58.0,64,49,32,29.95,29.83,5,1,15,0.00
2013-7-13,84.0,78.7,75.0,63.0,61.6,61.0,64,56,47,29.95,29.88,0,0,2,0.00
2013-7-14,105.0,99.5,89.0,59.0,53.8,50.0,37,23,17,29.86,29.77,4,1,11,0.00
2013-7-15,109.0,97.7,82.0,61.0,52.1,44.0,50,24,13,29.84,29.67,6,2,14,0.00
2013-7-16,107.0,94.3,83.0,50.0,42.5,36.0,24,17,11,29.90,29.75,6,2,15,0.00
2013-7-17,106.0,95.6,81.0,52.0,42.0,24.0,25,16,8,30.02,29.86,6,1,15,0.00
2013-7-18,109.0,100.5,90.0,56.0,41.1,26.0,27,14,9,29.97,29.78,4,1,10,0.00
2013-7-19,109.0,95.3,83.0,60.0,54.1,46.0,44,27,13,29.90,29.72,3,1,8,0.00
2013-7-22,96.0,94.2,90.0,65.0,62.2,60.0,44,35,32,29.93,29.85,3,2,9,0.00
2013-7-23,99.0,93.1,85.0,63.0,60.5,59.0,47,34,30,29.83,29.69,4,1,12,0.00
2013-7-24,105.0,95.2,77.0,67.0,58.3,51.0,68,32,18,29.76,29.58,4,0,10,0.00
2013-7-25,110.0,100.0,81.0,59.0,54.0,49.0,47,23,14,29.74,29.61,6,1,15,0.00
2013-7-26,105.0,92.4,82.0,63.0,58.6,54.0,49,33,20,29.83,29.72,6,1,20,0.00
2013-7-27,90.0,83.8,77.0,64.0,61.8,59.0,61,48,38,29.88,29.68,6,1,15,0.00
2013-7-28,96.0,86.2,77.0,63.0,58.5,51.0,54,40,23,29.72,29.61,9,2,23,0.00
2013-7-29,102.0,84.9,69.0,59.0,52.7,37.0,69,37,14,29.80,29.70,5,1,18,0.00
2013-7-30,104.0,94.9,78.0,50.0,44.5,41.0,35,18,13,29.91,29.77,6,1,20,0.00
2013-7-31,106.0,98.0,82.0,55.0,47.3,40.0,39,19,11,29.88,29.67,8,2,17,0.00
2013-8-1,105.0,97.0,85.0,37.0,23.5,16.0,10,7,5,29.62,29.57,11,4,23,0.00
2013-8-2,103.0,91.3,76.0,39.0,30.5,21.0,22,12,6,29.73,29.61,6,1,16,0.00
2013-8-3,105.0,96.0,69.0,44.0,34.6,27.0,36,13,8,29.79,29.66,7,2,16,0.00
2013-8-4,106.0,97.7,73.0,46.0,37.9,29.0,34,13,9,29.78,29.63,5,2,13,0.00
2013-8-5,105.0,95.6,82.0,39.0,26.2,17.0,22,9,5,29.78,29.62,6,2,16,0.00
2013-8-6,104.0,94.0,82.0,42.0,26.1,16.0,22,10,5,29.77,29.65,6,2,14,0.00
2013-8-7,100.0,90.7,80.0,36.0,22.7,6.0,19,10,3,29.79,29.67,8,2,21,0.00